Location: Unspecified
(48.5670°N, 0.0000°E)
Time: 04:53:37
(UTC+00:00)

Vanguard 2 Rocket - Pass Details

Date: 01 September 2019
Orbit: 554 x 3327 km, 32.9° (Epoch: 15 September)

Event Time Altitude Azimuth Distance (km) Brightness Sun altitude
Rises 23:44:20 0° 209° (SSW) 3,534 - -33.2°
Reaches altitude 10° 23:47:17 10° 191° (SSW) 2,917 - -33.3°
Maximum altitude 23:52:17 20° 147° (SSE) 2,811 - -33.3°
Exits shadow 23:58:19 12° 111° (ESE) 4,028 10.0 -33.3°
Drops below altitude 10° 23:59:15 10° 107° (ESE) 4,278 10.1 -33.3°
Sets 00:04:56 0° 94° (E) 5,859 11.0 -33.3°
